Overview Statistics Trail Chart Weather Telemetry Raw packets
 

This is the latest recevied weather packets stored in our database for station/object WW5JC. If no packets are shown the sender has not sent any weather packets the latest 10 day(s).

<< 94 95 96 97 98 99 100 >>
Time Temp. Humidity Pressure Rain* Wind** Luminosity Snow
1787926555 30° C 70% 1020.3 hPa 0 mm - 227 W/m² -
1787926253 29.44° C 71% 1020.3 hPa 0 mm - 217 W/m² -
1787925948 30° C 70% 1020.1 hPa 0 mm - 203 W/m² -
1787925643 30° C 68% 1020.3 hPa 0 mm - 189 W/m² -
1787925338 30.56° C 69% 1020.1 hPa 0 mm - 178 W/m² -
1787925037 30° C 71% 1020 hPa 0 mm - 166 W/m² -
1787924731 28.89° C 73% 1020.1 hPa 0 mm - 153 W/m² -
1787924426 28.89° C 75% 1020.2 hPa 0 mm - 143 W/m² -
1787924121 27.78° C 76% 1020.1 hPa 0 mm - 130 W/m² -
1787923821 27.22° C 79% 1020.1 hPa 0 mm - 119 W/m² -
1787923515 27.22° C 80% 1019.8 hPa 0 mm - 108 W/m² -
1787923211 27.22° C 79% 1020 hPa 0 mm - 98 W/m² -
1787922907 26.11° C 81% 1019.7 hPa 0 mm - 88 W/m² -
1787922605 25.56° C 83% 1019.8 hPa 0 mm - 79 W/m² -
1787922305 25.56° C 84% 1019.7 hPa 0 mm - 70 W/m² -
1787922001 24.44° C 86% 1019.7 hPa 0 mm - 63 W/m² -
1787921697 23.89° C 90% 1019.8 hPa 0 mm - 57 W/m² -
1787921390 22.78° C 91% 1019.5 hPa 0 mm - 50 W/m² -
1787921086 22.78° C 90% 1019.4 hPa 0 mm - 44 W/m² -
1787920781 22.78° C 91% 1019.2 hPa 0 mm - 39 W/m² -
1787920480 22.78° C 92% 1019.3 hPa 0 mm - 31 W/m² -
1787920177 22.22° C 93% 1019.2 hPa 0 mm - 26 W/m² -
1787919872 21.67° C 93% 1019.3 hPa 0 mm - 22 W/m² -
1787919571 21.67° C 94% 1019.3 hPa 0 mm - 19 W/m² -
1787919267 21.67° C 94% 1019.2 hPa 0 mm - 15 W/m² -

* Rain latest hour (hover to see other rain measurements)
** Current wind speed in m/s (hover to see current wind gust speed)